Latest Weather Observations for Norah Head

IDN60801

Issued at 5:05 am EST Wednesday 3 September 2014 (issued every 30 minutes, with the page automatically refreshed every 10 minutes)

About weather observations | Map of weather stations | Latest weather observations for NSW | Other Formats
Station Details ID: 061366 Name: NORAH HEAD AWS Lat: -33.28 Lon: 151.58 Height: 18.8 m
Data from the previous 72 hours. | See also: Recent months at Norah Head
Date/Time
EST
Temp
°C
App
Temp
°C
Dew
Point
Rel
Hum
%
Delta-T
°C
Wind Press
QNH
hPa
Press
MSL
hPa
Rain
since 9 am
mm
Dir
 
Spd
km/h
Gust
km/h
Spd
kts
Gust
kts
03/05:00am 11.2 5.5 5.1 66 2.8 E 24 41 13 22 1009.8 1009.7 5.8
03/04:30am 11.1 4.6 6.3 72 2.3 E 30 48 16 26 1009.7 - 5.8
03/04:16am 11.1 3.9 6.0 71 2.4 E 33 52 18 28 1009.2 - 5.8
03/04:14am 11.1 3.2 6.0 71 2.4 E 37 52 20 28 1009.2 - 5.8
03/04:03am 11.3 5.1 6.2 71 2.4 SSE 28 50 15 27 1009.4 - 5.6
03/04:00am 11.0 5.4 5.3 68 2.6 SSE 24 50 13 27 1009.1 1009.1 5.6
03/03:40am 10.8 3.8 6.0 72 2.2 SE 32 52 17 28 1009.2 - 5.6
03/03:30am 10.8 4.2 6.0 72 2.2 SE 30 44 16 24 1009.2 - 5.6
03/03:00am 10.2 5.5 6.2 76 1.9 SSE 20 35 11 19 1008.8 1008.8 5.4
03/02:31am 10.3 3.7 6.1 75 1.9 SE 30 50 16 27 1008.7 - 5.0
03/02:30am 10.3 3.7 5.9 74 2.0 SSE 30 43 16 23 1008.7 - 5.0
03/02:00am 10.5 4.0 6.3 75 2.0 SE 30 52 16 28 1009.1 1009.1 5.0
03/01:33am 10.7 4.3 5.3 69 2.5 SE 28 48 15 26 1009.4 - 4.6
03/01:30am 10.7 4.7 5.5 70 2.4 SE 26 44 14 24 1009.4 - 4.6
03/01:18am 10.5 4.1 5.3 70 2.4 SE 28 50 15 27 1009.5 - 4.6
03/01:00am 10.0 4.9 6.0 76 1.8 SE 22 46 12 25 1009.6 1009.5 4.6
03/12:30am 9.7 5.0 5.9 77 1.7 SE 20 35 11 19 1010.0 - 4.6
03/12:00am 9.7 5.0 5.9 77 1.7 SE 20 37 11 20 1010.4 1010.3 4.6
 
Date/Time
EST
Temp
°C
App
Temp
°C
Dew
Point
Rel
Hum
%
Delta-T
°C
Wind Press
QNH
hPa
Press
MSL
hPa
Rain
since 9 am
mm
Dir
 
Spd
km/h
Gust
km/h
Spd
kts
Gust
kts
02/11:30pm 9.8 3.9 6.0 77 1.8 SE 26 41 14 22 1010.5 - 4.6
02/11:00pm 10.1 5.0 5.9 75 1.9 ESE 22 39 12 21 1010.7 1010.6 4.6
02/10:30pm 10.4 4.9 6.0 74 2.0 SSE 24 43 13 23 1010.8 - 4.6
02/10:00pm 11.4 5.5 5.7 68 2.6 ESE 26 50 14 27 1010.9 1010.8 4.6
02/09:32pm 12.5 5.9 5.9 64 3.1 SSE 30 48 16 26 1010.8 - 4.6
02/09:30pm 12.4 5.3 5.6 63 3.2 SSE 32 48 17 26 1010.8 - 4.6
02/09:00pm 12.6 4.9 5.5 62 3.3 SSE 35 56 19 30 1010.3 1010.2 4.6
02/08:51pm 12.8 6.4 7.0 68 2.8 SSE 30 52 16 28 1010.2 - 4.6
02/08:30pm 12.0 9.8 7.7 75 2.1 SSW 9 15 5 8 1010.2 - 4.6
02/08:00pm 12.0 9.8 7.9 76 2.0 S 9 13 5 7 1010.3 1010.2 4.6
02/07:30pm 12.1 9.9 8.0 76 2.0 S 9 15 5 8 1010.1 - 4.6
02/07:00pm 12.1 9.4 7.4 73 2.3 S 11 22 6 12 1009.9 1009.8 4.6
02/06:30pm 11.7 10.1 8.7 82 1.5 SSW 7 15 4 8 1009.7 - 4.6
02/06:00pm 11.8 9.8 8.5 80 1.6 SSW 9 15 5 8 1009.1 1009.1 4.6
02/05:30pm 11.8 10.1 8.3 79 1.7 SSW 7 13 4 7 1009.1 - 4.6
02/05:00pm 13.8 9.9 8.6 71 2.6 S 19 28 10 15 1008.9 1008.9 4.6
02/04:59pm 14.1 10.3 8.9 71 2.6 S 19 28 10 15 1008.8 - 4.6
02/04:30pm 14.1 6.9 9.3 73 2.5 SE 37 52 20 28 1007.7 - 4.6
02/04:00pm 14.8 8.4 10.8 77 2.1 SE 35 44 19 24 1007.1 1007.1 4.6
02/03:30pm 14.5 9.9 10.9 79 1.9 SE 26 35 14 19 1007.3 - 4.4
02/03:00pm 15.0 11.8 11.8 81 1.7 E 20 28 11 15 1007.3 1007.3 4.4
02/02:30pm 13.5 13.4 10.9 84 1.4 S 2 4 1 2 1007.3 - 4.4
02/02:00pm 14.1 14.7 12.0 87 1.1 CALM 0 2 0 1 1007.6 1007.6 4.4
02/01:30pm 13.3 12.6 11.4 88 1.0 SSE 6 11 3 6 1007.4 - 4.4
02/01:00pm 12.4 11.5 10.6 89 0.9 S 6 9 3 5 1007.5 1007.5 4.4
02/12:30pm 13.3 11.9 10.8 85 1.3 SSW 9 15 5 8 1007.9 - 2.2
02/12:00pm 14.3 13.2 10.7 79 1.9 SSW 7 15 4 8 1007.6 1007.6 1.4
02/11:30am 14.7 13.6 11.8 83 1.6 W 9 13 5 7 1008.1 - 1.2
02/11:00am 15.1 15.1 11.1 77 2.1 W 2 6 1 3 1008.2 1008.2 1.2
02/10:30am 15.4 15.2 10.6 73 2.5 SW 2 6 1 3 1008.6 - 0.4
02/10:00am 15.8 16.1 11.0 73 2.6 CALM 0 6 0 3 1009.1 1009.1 0.0
02/09:30am 15.6 14.6 10.4 71 2.7 W 6 9 3 5 1009.4 - 0.0
02/09:00am 15.2 14.4 9.6 69 2.9 SW 4 11 2 6 1009.7 1009.6 0.0
02/08:30am 15.2 14.4 9.8 70 2.8 W 4 7 2 4 1009.9 - 0.0
02/08:00am 15.3 14.8 9.2 67 3.1 S 2 4 1 2 1009.7 1009.6 0.0
02/07:30am 15.0 14.3 8.7 66 3.2 SW 2 6 1 3 1009.8 - 0.0
02/07:00am 15.3 12.9 8.5 64 3.4 S 11 19 6 10 1009.9 1009.8 0.0
02/06:30am 15.2 12.5 8.9 66 3.2 S 13 19 7 10 1009.4 - 0.0
02/06:00am 15.2 12.9 9.1 67 3.1 SSW 11 15 6 8 1009.1 1009.1 0.0
02/05:30am 15.1 13.7 9.0 67 3.1 WSW 6 9 3 5 1008.3 - 0.0
02/05:00am 15.3 13.6 9.9 70 2.8 SSW 9 15 5 8 1008.1 1008.1 0.0
02/04:30am 15.5 13.7 10.9 74 2.4 W 11 13 6 7 1007.9 - 0.0
02/04:00am 15.6 13.0 10.6 72 2.7 W 15 17 8 9 1007.7 1007.7 0.0
02/03:30am 15.6 13.2 11.4 76 2.3 W 15 17 8 9 1008.0 - 0.0
02/03:00am 15.6 13.1 11.2 75 2.4 W 15 17 8 9 1008.3 1008.3 0.0
02/02:30am 15.6 14.1 11.8 78 2.1 W 11 15 6 8 1008.5 - 0.0
02/02:00am 15.8 14.8 12.2 79 2.0 WNW 9 11 5 6 1009.1 1009.1 0.0
02/01:30am 15.8 14.0 12.0 78 2.1 NW 13 15 7 8 1009.5 - 0.0
02/01:00am 15.6 14.6 11.0 74 2.5 W 7 9 4 5 1010.1 1010.0 0.0
02/12:30am 15.8 13.7 9.9 68 3.1 WSW 11 13 6 7 1010.5 - 0.0
02/12:00am 15.8 13.5 10.3 70 2.9 WSW 13 15 7 8 1010.9 1010.8 0.0
 
Date/Time
EST
Temp
°C
App
Temp
°C
Dew
Point
Rel
Hum
%
Delta-T
°C
Wind Press
QNH
hPa
Press
MSL
hPa
Rain
since 9 am
mm
Dir
 
Spd
km/h
Gust
km/h
Spd
kts
Gust
kts
01/11:30pm 16.0 13.8 10.7 71 2.8 SW 13 15 7 8 1011.2 - 0.0
01/11:00pm 15.9 14.2 11.1 73 2.6 SSW 11 15 6 8 1011.4 1011.3 0.0
01/10:30pm 15.8 14.0 10.8 72 2.7 W 11 15 6 8 1011.6 - 0.0
01/10:00pm 16.1 14.8 11.1 72 2.7 WNW 9 15 5 8 1011.8 1011.7 0.0
01/09:30pm 16.0 14.9 12.0 77 2.2 NNW 9 9 5 5 1012.2 - 0.0
01/09:00pm 15.6 14.3 11.4 76 2.3 NW 9 9 5 5 1012.5 1012.4 0.0
01/08:30pm 15.7 15.0 11.3 75 2.4 WNW 6 9 3 5 1012.7 - 0.0
01/08:00pm 17.0 15.8 12.7 76 2.4 NW 11 13 6 7 1012.4 1012.3 0.0
01/07:30pm 17.8 15.4 12.7 72 2.8 NW 17 19 9 10 1012.0 - 0.0
01/07:00pm 17.8 15.7 12.5 71 2.9 NW 15 19 8 10 1011.8 1011.7 0.0
01/06:30pm 17.9 15.4 12.4 70 3.1 SW 17 20 9 11 1011.5 - 0.0
01/06:00pm 18.5 16.7 13.4 72 2.9 WSW 15 19 8 10 1011.3 1011.2 0.0
01/05:30pm 18.6 15.8 12.6 68 3.4 N 19 19 10 10 1011.2 - 0.0
01/05:00pm 19.3 16.4 12.3 64 3.9 N 19 20 10 11 1011.2 1011.1 0.0
01/04:30pm 19.5 16.5 12.5 64 3.9 NNW 20 22 11 12 1011.1 - 0.0
01/04:00pm 19.9 15.9 11.9 60 4.4 NNW 24 28 13 15 1011.1 1011.0 0.0
01/03:30pm 20.1 16.6 12.1 60 4.5 N 22 24 12 13 1011.0 - 0.0
01/03:00pm 20.5 19.6 12.7 61 4.4 NNE 9 15 5 8 1011.4 1011.3 0.0
01/02:30pm 22.1 21.2 11.2 50 6.0 N 7 15 4 8 1011.6 - 0.0
01/02:00pm 20.9 19.5 12.1 57 4.9 E 11 15 6 8 1012.4 1012.3 0.0
01/01:30pm 21.6 21.1 12.2 55 5.3 ESE 6 9 3 5 1012.8 - 0.0
01/01:00pm 22.6 21.4 9.7 44 7.0 WNW 6 11 3 6 1013.2 1013.1 0.0
01/12:30pm 22.6 21.0 8.7 41 7.4 W 7 15 4 8 1013.6 - 0.0
01/12:00pm 22.4 21.2 9.6 44 6.9 WNW 6 13 3 7 1014.0 1013.9 0.0
01/11:30am 21.5 19.4 8.4 43 6.9 W 9 19 5 10 1014.6 - 0.0
01/11:00am 21.8 22.1 15.9 69 3.5 NE 9 11 5 6 1015.2 1015.1 0.0
01/10:30am 20.5 20.5 15.3 72 3.1 NNE 9 9 5 5 1015.8 - 0.0
01/10:00am 18.3 17.4 13.6 74 2.7 NNE 11 11 6 6 1016.4 1016.3 0.0
01/09:30am 18.1 17.5 13.6 75 2.6 N 9 11 5 6 1016.9 - 0.0
01/09:00am 17.2 16.7 12.7 75 2.5 NNW 7 9 4 5 1017.2 1017.2 0.0
01/08:30am 15.9 15.4 12.6 81 1.8 NNW 7 11 4 6 1017.4 - 0.0
01/08:00am 14.9 14.5 12.9 88 1.1 NNW 7 9 4 5 1017.2 1017.2 0.0
01/07:30am 14.0 13.7 12.7 92 0.7 NNW 6 9 3 5 1017.0 - 0.0
01/07:00am 12.7 12.8 11.6 93 0.6 NW 2 6 1 3 1017.0 1017.0 0.0
01/06:30am 11.4 10.5 10.5 94 0.5 NW 6 7 3 4 1016.9 - 0.0
01/06:00am 11.6 10.5 10.7 94 0.5 WNW 7 9 4 5 1016.7 1016.7 0.0
01/05:30am 11.6 11.1 10.7 94 0.5 WNW 4 6 2 3 1016.4 - 0.0
01/05:00am 11.6 11.1 10.7 94 0.5 WNW 4 6 2 3 1016.2 1016.1 0.0
01/04:30am 12.1 11.7 11.2 94 0.5 WNW 4 7 2 4 1016.1 - 0.0
01/04:00am 12.4 12.1 11.5 94 0.5 W 4 7 2 4 1016.0 1015.9 0.0
01/03:30am 12.5 11.7 11.6 94 0.5 NNW 7 11 4 6 1015.9 - 0.0
01/03:00am 12.5 11.6 11.4 93 0.6 NW 7 11 4 6 1016.1 1016.0 0.0
01/02:30am 12.7 11.9 11.6 93 0.6 WNW 7 9 4 5 1016.5 - 0.0
01/02:00am 12.6 11.7 11.3 92 0.7 NW 7 9 4 5 1016.7 1016.7 0.0
01/01:30am 13.1 12.3 11.8 92 0.7 NW 7 11 4 6 1017.1 - 0.0
01/01:00am 13.2 12.4 11.8 91 0.7 NW 7 9 4 5 1017.3 1017.3 0.0
01/12:30am 13.4 12.7 12.0 91 0.8 WNW 7 9 4 5 1017.5 - 0.0
01/12:00am 13.5 12.8 12.1 91 0.8 NW 7 11 4 6 1017.7 1017.7 0.0
 
Date/Time
EST
Temp
°C
App
Temp
°C
Dew
Point
Rel
Hum
%
Delta-T
°C
Wind Press
QNH
hPa
Press
MSL
hPa
Rain
since 9 am
mm
Dir
 
Spd
km/h
Gust
km/h
Spd
kts
Gust
kts
31/11:30pm 13.6 13.0 12.2 91 0.8 WNW 7 11 4 6 1017.9 - 0.0
31/11:00pm 13.8 13.2 12.4 91 0.8 WNW 7 9 4 5 1018.0 1018.0 0.0
31/10:30pm 13.9 13.2 12.1 89 1.0 WNW 7 9 4 5 1018.1 - 0.0
31/10:00pm 14.2 13.6 12.4 89 1.0 WNW 7 11 4 6 1018.2 1018.2 0.0
31/09:30pm 14.2 13.6 12.2 88 1.1 WNW 7 9 4 5 1018.0 - 0.0
31/09:00pm 14.5 13.9 12.4 87 1.1 WNW 7 11 4 6 1018.3 1018.3 0.0
31/08:30pm 15.2 15.3 12.7 85 1.4 NNW 4 7 2 4 1018.1 - 0.0
31/08:00pm 15.8 15.6 13.1 84 1.5 ESE 6 7 3 4 1018.1 1018.1 0.0
31/07:30pm 16.1 15.9 13.6 85 1.4 ESE 7 9 4 5 1018.0 - 0.0
31/07:00pm 16.1 15.7 13.0 82 1.7 ESE 7 9 4 5 1017.8 1017.8 0.0
31/06:30pm 16.3 14.5 13.4 83 1.6 SE 15 17 8 9 1017.5 - 0.0
31/06:00pm 16.1 14.6 13.0 82 1.7 SE 13 17 7 9 1017.4 1017.4 0.0
31/05:30pm 16.5 15.0 13.2 81 1.8 SE 13 15 7 8 1017.3 - 0.0
31/05:00pm 16.4 14.1 12.9 80 1.9 SE 17 20 9 11 1017.2 1017.2 0.0
31/04:30pm 16.9 15.0 13.0 78 2.2 SE 15 19 8 10 1017.2 - 0.0
31/04:00pm 17.4 15.1 13.1 76 2.4 SSE 17 20 9 11 1017.3 1017.3 0.0
31/03:30pm 17.7 15.3 12.8 73 2.7 SSE 17 20 9 11 1017.3 - 0.0
31/03:00pm 18.1 15.5 13.2 73 2.8 SSE 19 20 10 11 1017.4 1017.4 0.0
31/02:30pm 18.4 15.6 13.3 72 2.9 SSE 20 22 11 12 1017.6 - 0.0
31/02:00pm 18.1 15.1 12.5 70 3.1 SSE 20 24 11 13 1017.8 1017.8 0.0
31/01:30pm 18.0 14.7 12.9 72 2.9 S 22 24 12 13 1018.2 - 0.0
31/01:00pm 18.4 16.2 13.3 72 2.9 S 17 20 9 11 1018.5 1018.5 0.0
31/12:30pm 17.7 15.3 12.8 73 2.7 S 17 22 9 12 1019.0 - 0.0
31/12:00pm 18.0 15.7 12.9 72 2.9 S 17 20 9 11 1019.3 1019.3 0.0
31/11:30am 17.9 16.6 12.4 70 3.1 S 11 17 6 9 1019.7 - 0.0
31/11:00am 17.6 16.2 12.1 70 3.0 SSE 11 17 6 9 1019.9 1019.9 0.0
31/10:30am 17.0 14.9 11.3 69 3.1 SE 13 19 7 10 1020.2 - 0.0
31/10:00am 17.0 15.6 12.1 73 2.7 S 11 19 6 10 1020.5 1020.5 0.0
31/09:30am 16.4 14.5 11.8 74 2.5 S 13 20 7 11 1020.6 - 0.0
31/09:00am 15.9 14.6 11.1 73 2.6 S 9 17 5 9 1020.7 1020.7 0.2
31/08:30am 15.4 14.2 11.6 78 2.0 S 9 15 5 8 1020.9 - 0.2
31/08:00am 14.1 12.3 10.7 80 1.8 S 11 19 6 10 1020.7 1020.7 0.2
31/07:30am 13.4 12.3 10.6 83 1.5 SSW 7 15 4 8 1020.4 - 0.2
31/07:00am 12.8 10.5 10.5 86 1.2 S 13 20 7 11 1020.3 1020.3 0.2
31/06:30am 12.7 10.4 10.6 87 1.1 S 13 20 7 11 1020.2 - 0.2
31/06:00am 12.6 10.8 10.7 88 1.0 S 11 20 6 11 1019.9 1019.9 0.2
31/05:30am 12.7 10.5 10.9 89 0.9 S 13 20 7 11 1019.7 - 0.2

Other Formats:

Comma delimited format used in spreadsheet applications
http://www.bom.gov.au/fwo/IDN60801/IDN60801.95770.axf

JavaScript Object Notation format (JSON) in row-major order
http://www.bom.gov.au/fwo/IDN60801/IDN60801.95770.json